CW7052 Weather Reports


time (UTC)temp
C
wind
direction
speed
KPH
gust
KPH
rain 1hr
cm
rain 24hr
cm
rain mn
cm
humidity
%
barometer
mb
20260505171250 14 29 0.0 0.0 0.00 0.00 0.00 80 1015.6
20260505170251 14 29 0.0 1.6 0.00 0.00 0.00 80 1015.5
20260505165250 13 29 0.0 0.0 0.00 0.00 0.00 83 1015.5
20260505164250 13 29 0.0 0.0 0.00 0.00 0.00 83 1015.5
20260505163255 13 29 0.0 0.0 0.00 0.00 0.00 85 1015.5
20260505162250 12 29 0.0 0.0 0.00 0.00 0.00 86 1015.6
20260505161250 12 29 0.0 0.0 0.00 0.00 0.00 87 1015.6
20260505160251 11 29 0.0 0.0 0.00 0.00 0.00 88 1015.5
20260505153250 11 29 0.0 0.0 0.00 0.00 0.00 91 1015.6
20260505152251 11 29 0.0 0.0 0.00 0.00 0.00 91 1015.5
20260505151251 11 29 0.0 0.0 0.00 0.00 0.00 92 1015.4
20260505150253 11 29 0.0 0.0 0.00 0.00 0.00 92 1015.3
20260505140251 10 29 0.0 0.0 0.00 0.00 0.00 91 1014.9
20260505130250 10 29 0.0 0.0 0.00 0.00 0.00 92 1014.6
20260505124250 10 29 0.0 0.0 0.00 0.00 0.00 91 1014.6
20260505123253 10 29 0.0 0.0 0.00 0.00 0.00 91 1014.6
20260505122250 10 29 0.0 0.0 0.00 0.00 0.00 91 1014.7
20260505121250 10 29 0.0 0.0 0.00 0.00 0.00 91 1014.7
20260505120250 10 29 0.0 0.0 0.00 0.00 0.00 91 1014.8
20260505115251 10 29 0.0 0.0 0.00 0.00 0.00 91 1014.8
20260505114250 10 29 0.0 0.0 0.00 0.00 0.00 91 1014.8
20260505113255 10 29 0.0 0.0 0.00 0.00 0.00 91 1014.8
20260505112250 10 29 0.0 0.0 0.00 0.00 0.00 91 1014.7
20260505111252 10 29 0.0 0.0 0.00 0.00 0.00 91 1014.5
20260505110253 10 29 0.0 0.0 0.00 0.00 0.00 91 1014.6
20260505101251 10 29 0.0 0.0 0.00 0.00 0.00 91 1014.7
20260505100253 10 29 0.0 0.0 0.00 0.00 0.00 91 1014.8
20260505095251 10 29 0.0 0.0 0.00 0.00 0.00 91 1014.9
20260505094253 10 29 0.0 0.0 0.00 0.00 0.00 91 1014.8
20260505093251 10 29 0.0 0.0 0.00 0.00 0.00 91 1014.8
20260505092250 10 29 0.0 0.0 0.00 0.00 0.00 91 1015.0
20260505091251 10 29 0.0 0.0 0.00 0.00 0.00 91 1015.3
20260505090253 10 29 0.0 0.0 0.00 0.00 0.00 90 1015.3
20260505085250 10 29 0.0 0.0 0.00 0.00 0.00 90 1015.3
20260505084252 10 29 0.0 0.0 0.00 0.00 0.00 90 1015.4
20260505083250 10 29 0.0 0.0 0.00 0.00 0.00 90 1015.4
20260505082253 10 29 0.0 0.0 0.00 0.00 0.00 90 1015.4
20260505081251 10 29 0.0 0.0 0.00 0.00 0.00 90 1015.7
20260505080254 10 29 0.0 0.0 0.00 0.00 0.00 90 1015.5
20260505075253 10 29 0.0 0.0 0.00 0.00 0.00 90 1015.6
20260505074250 10 29 0.0 0.0 0.00 0.00 0.00 90 1015.5
20260505073250 10 29 0.0 0.0 0.00 0.00 0.00 90 1015.5
20260505072250 10 29 0.0 0.0 0.00 0.00 0.00 90 1015.4
20260505071254 10 29 0.0 0.0 0.00 0.00 0.00 89 1015.3
20260505070250 10 29 0.0 0.0 0.00 0.00 0.00 89 1015.3
20260505065250 10 29 0.0 0.0 0.00 0.00 0.00 89 1015.4
20260505064252 11 29 0.0 0.0 0.00 0.00 0.00 88 1015.2
20260505063251 11 29 0.0 0.0 0.00 0.00 0.00 88 1015.2
20260505062254 11 29 0.0 0.0 0.00 0.00 0.00 87 1015.1
20260505061250 11 29 0.0 0.0 0.00 0.00 0.00 87 1015.1
20260505060250 11 29 0.0 0.0 0.00 0.00 0.00 86 1015.3
20260505055250 11 29 0.0 0.0 0.00 0.00 0.00 86 1015.3
20260505054250 11 29 0.0 0.0 0.00 0.00 0.00 86 1015.5
20260505053250 11 29 0.0 0.0 0.00 0.00 0.00 86 1015.6
20260505052251 11 29 0.0 0.0 0.00 0.00 0.00 86 1015.6
20260505051250 11 29 0.0 0.0 0.00 0.00 0.00 85 1015.7
20260505050252 12 29 0.0 0.0 0.00 0.00 0.00 86 1015.5
20260505041253 12 29 0.0 0.0 0.00 0.00 0.00 84 1015.2
20260505040253 12 29 0.0 0.0 0.00 0.00 0.00 83 1015.2
20260505035250 12 29 0.0 0.0 0.00 0.00 0.00 82 1015.0
20260505034250 12 29 0.0 0.0 0.00 0.00 0.00 81 1014.8
20260505033253 12 29 0.0 0.0 0.00 0.00 0.00 80 1014.7
20260505032250 13 29 0.0 0.0 0.00 0.00 0.00 80 1014.7
20260505031250 13 29 0.0 0.0 0.00 0.00 0.00 79 1014.8
20260505030250 13 29 0.0 0.0 0.00 0.00 0.00 79 1014.8
20260505025251 13 29 0.0 0.0 0.00 0.00 0.00 78 1014.5
20260505024251 14 29 0.0 0.0 0.00 0.00 0.00 78 1014.7
20260505023250 14 29 0.0 0.0 0.00 0.00 0.00 76 1014.4
20260505022250 15 29 0.0 0.0 0.00 0.00 0.00 74 1014.5
20260505021250 15 29 0.0 0.0 0.00 0.00 0.00 73 1014.3
20260505020250 15 29 0.0 0.0 0.00 0.00 0.00 71 1014.3
20260505015251 15 29 0.0 0.0 0.00 0.00 0.00 70 1014.3
20260505014254 16 29 0.0 0.0 0.00 0.00 0.00 69 1014.3
20260505013251 16 29 0.0 0.0 0.00 0.00 0.00 69 1014.3
20260505012250 16 65 0.0 0.0 0.00 0.00 0.00 69 1014.4
20260505011253 16 63 0.0 4.8 0.00 0.00 0.00 69 1014.5
20260505010251 16 140 0.0 4.8 0.00 0.00 0.00 68 1014.5
20260505005253 16 57 0.0 0.0 0.00 0.00 0.00 69 1014.5
20260505004250 16 67 0.0 0.0 0.00 0.00 0.00 69 1014.5
20260505003250 16 67 0.0 4.8 0.00 0.00 0.00 71 1014.6
20260505002250 16 239 0.0 1.6 0.00 0.00 0.00 71 1014.5
20260505001250 16 331 0.0 1.6 0.00 0.00 0.00 72 1014.6
20260505000253 16 303 0.0 0.0 0.00 0.00 0.00 73 1014.4
20260504235250 16 303 0.0 0.0 0.00 0.00 0.00 72 1014.5
20260504234254 16 303 0.0 1.6 0.00 0.00 0.00 71 1014.5
20260504233254 16 303 0.0 0.0 0.00 0.00 0.00 70 1014.5
20260504232253 17 304 0.0 0.0 0.00 0.00 0.00 67 1014.4
20260504231250 18 189 0.0 3.2 0.00 0.00 0.00 63 1014.5
20260504230253 18 333 0.0 0.0 0.00 0.00 0.00 63 1014.4
20260504225251 19 333 0.0 4.8 0.00 0.00 0.00 60 1014.4
20260504224250 18 167 4.8 11.3 0.00 0.00 0.00 60 1014.4
20260504223253 18 338 0.0 4.8 0.00 0.00 0.00 63 1014.5
20260504222250 17 169 0.0 0.0 0.00 0.00 0.00 66 1014.7
20260504221250 18 169 0.0 1.6 0.00 0.00 0.00 64 1014.9
20260504220254 18 164 0.0 8.0 0.00 0.00 0.00 64 1015.0
20260504215250 19 306 0.0 9.7 0.00 0.00 0.00 60 1015.1
20260504214251 18 71 0.0 8.0 0.00 0.00 0.00 65 1015.0
20260504213253 17 247 0.0 1.6 0.00 0.00 0.00 69 1015.0
20260504212253 16 102 0.0 3.2 0.00 0.00 0.00 71 1015.3
20260504211250 16 332 0.0 3.2 0.00 0.00 0.00 70 1015.4
20260504210250 15 158 0.0 3.2 0.00 0.00 0.00 71 1015.4
20260504205250 15 87 0.0 1.6 0.00 0.00 0.00 73 1015.4
20260504204251 15 87 0.0 0.0 0.00 0.00 0.00 75 1015.4
20260504203250 15 87 0.0 3.2 0.00 0.00 0.00 74 1015.4
20260504202250 15 32 0.0 0.0 0.00 0.00 0.00 77 1015.3
20260504201251 15 32 0.0 1.6 0.00 0.00 0.00 76 1015.5
20260504200253 15 349 1.6 4.8 0.00 0.00 0.00 74 1015.4
20260504195250 15 344 0.0 4.8 0.00 0.00 0.00 73 1015.4
20260504194251 16 37 0.0 3.2 0.00 0.00 0.00 71 1015.4
20260504193250 16 314 0.0 1.6 0.00 0.00 0.00 69 1015.4
20260504192250 17 177 0.0 0.0 0.00 0.00 0.00 70 1015.2
20260504191251 16 127 0.0 1.6 0.00 0.00 0.00 73 1015.3
20260504190250 16 127 0.0 3.2 0.00 0.00 0.00 72 1015.3
20260504185250 16 183 0.0 1.6 0.00 0.00 0.00 70 1015.3
20260504184251 16 119 0.0 1.6 0.00 0.00 0.00 70 1015.4
20260504183251 16 114 0.0 1.6 0.00 0.00 0.00 71 1015.3
20260504182251 15 114 0.0 1.6 0.00 0.00 0.00 74 1015.2
20260504181253 15 150 0.0 3.2 0.00 0.00 0.00 75 1015.2
20260504180251 15 134 0.0 4.8 0.00 0.00 0.00 74 1015.1
20260504175250 15 135 0.0 1.6 0.00 0.00 0.00 73 1015.0
20260504174253 15 140 0.0 0.0 0.00 0.00 0.00 74 1014.9
20260504173251 16 132 0.0 1.6 0.00 0.00 0.00 73 1014.9
20260504172251 16 140 0.0 1.6 0.00 0.00 0.00 71 1014.8